User: anonymous   Login
Location: Bruderhein
(53.8035°N, 112.9265°W)
Time: 05:02:00
(UTC+00:00)
Language:

NOAA 15 - Orbit

View from above orbital plane
View from above orbital plane
View from above satellite
View from above satellite

Ground track
Ground track

The orbit data is extracted from the following two-line orbital elements,

1 25338U 98030A   24057.78549009  .00000287  00000-0  13711-3 0  9994
2 25338  98.5820  87.1770 0009263 292.2252  67.7945 14.26502030341558
Epoch (UTC): 26 February 2024 18:51:06
Eccentricity: 0.0009263
inclination: 98.5820°
perigee height: 797 km
apogee height: 810 km
right ascension of ascending node: 87.1770°
argument of perigee: 292.2252°
revolutions per day: 14.26502030
mean anomaly at epoch: 67.7945°
orbit number at epoch: 34155

The dashed part of the orbit path shows where the satellite is in the earth's shadow,  

DLR